Location: Arthez
(43.0833°N, 0.2500°W)
Time: 22:57:15
(UTC+00:00)

deb Kosmos-970 - Pass Details

Date: 18 August 2022
Orbit: 900 x 1112 km, 65.8° (Epoch: 28 September)

Event Time Altitude Azimuth Distance (km) Brightness Sun altitude
Rises 01:53:15 0° 317° (NW) 3,926 ? -28.6°
Reaches altitude 10° 01:56:31 10° 304° (WNW) 2,944 ? -28.3°
Enters shadow 01:58:51 18° 287° (WNW) 2,393 ? -28.0°
